Flag for Russia Weather past 2 weeks in Novorossiysk, Russia

Now
59 °F

Passing clouds.


Feels Like: 59 °F
Forecast: 57 / 78 °F
Wind: 1 mph from North

Location: Anapa / Vitiazevo

Current Time: Sep 22, 2014 at 10:29:03 PM

Latest Report: Sep 22, 2014 at 9:30 PM


Visibility: N/A

Pressure: 29.86 "Hg

Humidity: 72%

Dew point: 50 °F

Location of NovorossiyskLocation

Historic Weather in Novorossiysk — Graph

°F

Novorossiysk temperature yesterday

Maximum temperature yesterday: 64 °F (at 3:30 PM)
Minimum temperature yesterday: 50 °F (at 3:00 AM)
Average temperature yesterday: 57 °F

Past Weeks' High & Low Weather Summary

 TemperatureHumidityPressure
High82 °F (Sep 8, 2:00 PM)100% (Sep 11, 7:00 AM)30.07 "Hg (Sep 11, 7:00 AM)
Low50 °F (Sep 21, 3:00 AM)34% (Sep 17, 4:00 PM)29.74 "Hg (Sep 7, 9:30 PM)
Average66 °F71%29.94 "Hg
* Reported Sep 7 9:00 PM — Sep 22 9:30 PM, Novorossiysk, Weather by CustomWeather, © 2014

Note: Actual official high and low records may vary slightly from our data, if they occured in-between our weather recording intervals... More about our weather records

Advertising

Novorossiysk weather history for previous 24 hours

 ConditionsComfort  
Time TempWeatherWind HumidityBarometerVisibility
9:30 PM
Sep 22
59 °FPassing clouds.1 mph72%29.86 "HgN/A
9:00 PM63 °FPassing clouds.No wind68%29.86 "HgN/A
8:30 PM63 °FPassing clouds.1 mph68%29.86 "HgN/A
8:00 PM64 °FPartly sunny.1 mph68%29.86 "HgN/A
7:30 PM66 °FPartly sunny.3 mph64%29.86 "HgN/A
7:00 PM68 °FPartly sunny.8 mph60%29.86 "HgN/A
6:30 PM68 °FScattered clouds.6 mph60%29.86 "HgN/A
6:00 PM70 °FPartly sunny.6 mph57%29.86 "HgN/A
5:30 PM70 °FPartly sunny.8 mph57%29.86 "HgN/A
5:00 PM70 °FPartly sunny.3 mph57%29.86 "HgN/A
4:30 PM70 °FPartly sunny.6 mph57%29.86 "HgN/A
4:00 PM72 °FPartly sunny.8 mph50%29.86 "HgN/A
3:30 PM73 °FBroken clouds.6 mph50%29.86 "HgN/A
3:00 PM73 °FBroken clouds.8 mph47%29.86 "HgN/A
2:30 PM73 °FBroken clouds.8 mph50%29.86 "HgN/A
2:00 PM73 °FBroken clouds.6 mph50%29.86 "HgN/A
1:30 PM75 °FBroken clouds.3 mph50%29.86 "HgN/A
1:00 PM70 °FPartly sunny.3 mph57%29.86 "HgN/A
12:30 PM72 °FBroken clouds.3 mph53%29.89 "HgN/A
12:00 PM72 °FSunny.1 mph53%29.89 "Hg10 mi
11:30 AM68 °FSunny.3 mph64%29.89 "Hg10 mi
11:00 AM66 °FSunny.1 mph68%29.89 "Hg10 mi
10:30 AM63 °FSunny.1 mph73%29.89 "Hg10 mi
10:00 AM61 °FPassing clouds.3 mph77%29.89 "HgN/A
9:30 AM59 °FPassing clouds.3 mph82%29.89 "HgN/A
9:00 AM57 °FSunny.3 mph88%29.89 "Hg10 mi
8:30 AM55 °FSunny.6 mph88%29.89 "Hg10 mi
8:00 AM54 °FClear.8 mph94%29.89 "Hg10 mi
7:30 AM54 °FClear.6 mph94%29.89 "Hg10 mi
7:00 AM55 °FClear.8 mph88%29.89 "Hg10 mi
6:30 AM55 °FPartly cloudy.8 mph88%29.89 "HgN/A
6:00 AM55 °FPartly cloudy.6 mph88%29.89 "HgN/A
5:00 AM55 °FPartly cloudy.8 mph88%29.89 "HgN/A
4:00 AM55 °FPartly cloudy.10 mph88%29.89 "HgN/A
3:00 AM54 °FPartly cloudy.8 mph94%29.92 "HgN/A
2:00 AM55 °FPartly cloudy.10 mph88%29.92 "HgN/A
1:00 AM55 °FPartly cloudy.8 mph88%29.92 "HgN/A
12:00 AM57 °FPartly cloudy.10 mph82%29.92 "HgN/A
11:30 PM
Sep 21
57 °FPassing clouds.10 mph82%29.92 "HgN/A
11:00 PM59 °FPassing clouds.10 mph77%29.95 "HgN/A
10:30 PM59 °FPassing clouds.13 mph77%29.95 "HgN/A
10:00 PM59 °FPassing clouds.8 mph77%29.95 "HgN/A
Weather by CustomWeather, © 2014

See weather overviewHow to use our weather pages